Temp
61 61 61 60 60 60 60 60 61 61 61 61 61 61 61 61 62 62 59 68 68 72 72 73 75 74 71 64 67 65 52 49 54 58 61 64 65 72 76 70 76 78 78 81 84
61 60 60 60 60 60 60 60 60 61 61 61 61 61 61 61 63 64 73 74 73 73 71 69 68 71 65 63 65 59 49 52 61 60 60 64 64 66 69 68 70 74 80 80 82
60 60 60 60 60 60 60 60 60 61 61 61 61 61 61 60 64 67 77 74 73 73 71 71 70 66 57 60 63 56 54 59 65 64 63 66 64 68 65 64 68 69 73 76 74
60 59 59 60 60 60 60 60 60 61 61 60 60 61 61 63 52 72 79 75 75 73 73 70 67 60 56 57 62 54 62 62 63 64 62 61 67 66 66 68 73 74 75 73 74
59 59 58 59 59 59 60 60 60 60 60 60 61 62 62 60 62 80 78 77 76 74 71 67 64 59 54 57 62 55 61 66 66 65 64 66 66 63 64 71 74 75 75 74 74
58 58 58 59 59 59 59 59 59 59 60 61 62 62 63 55 78 81 79 75 76 69 66 67 61 62 56 56 53 61 62 62 63 64 63 63 68 63 72 72 73 73 72 72 72
58 57 58 58 59 59 59 58 58 59 60 62 63 68 63 65 80 78 75 71 76 77 71 72 71 66 59 57 62 63 56 60 62 61 61 65 58 60 72 74 69 71 70 72 73
57 57 57 58 58 59 59 58 59 60 61 63 64 62 60 78 76 76 76 75 79 77 77 77 73 63 59 61 63 56 53 44 58 62 65 59 51 64 69 66 67 69 71 72 70
57 57 57 58 58 59 58 58 60 62 63 64 60 60 61 78 76 81 79 77 77 78 77 84 70 62 60 51 47 48 43 44 52 61 61 55 56 63 69 67 64 65 66 69 69
57 56 56 57 57 57 57 58 62 63 69 71 73 60 67 71 76 81 80 80 75 72 71 66 59 53 50 47 38 42 44 45 48 56 57 53 55 61 64 64 64 67 65 65 67
57 56 56 56 57 56 57 62 63 62 62 63 67 68 74 77 80 77 81 75 71 65 53 59 51 46 51 53 55 53 49 48 53 58 53 53 52 59 64 60 60 64 66 64 66
56 56 56 56 56 56 53 60 68 69 58 71 73 73 79 77 70 75 80 66 62 54 58 52 46 56 62 59 56 54 49 46 52 58 55 53 54 59 60 59 61 62 64 66 68
56 56 56 56 56 56 61 68 73 70 55 67 74 73 75 76 70 71 75 67 59 55 54 47 56 63 61 55 55 50 48 47 48 55 54 52 48 54 62 61 64 64 65 67 67
55 55 56 55 60 60 65 74 71 69 48 61 69 74 76 72 66 78 77 69 60 55 55 52 61 61 56 55 56 45 56 55 52 46 39 50 37 50 53 55 57 60 61 59 64
55 56 56 54 56 61 71 68 69 66 35 66 68 77 73 68 68 70 76 68 58 58 55 53 55 55 53 55 59 51 58 51 51 45 40 44 34 42 51 51 53 57 60 62 64
55 56 55 57 52 63 68 66 67 49 41 61 68 65 63 67 68 69 68 69 67 59 59 57 62 59 56 60 59 59 51 48 43 38 28 39 37 38 43 47 52 54 58 60 64
55 55 52 64 64 67 66 62 47 42 64 59 59 63 60 61 64 66 62 56 51 45 44 52 55 60 62 53 55 52 40 27 27 26 27 42 39 40 47 50 53 52 56 60 61
54 53 55 67 64 65 61 53 39 58 57 65 63 61 56 60 60 61 56 51 58 52 43 38 38 55 59 52 46 44 41 28 25 25 34 43 33 40 52 54 55 55 55 58 60
53 57 60 66 67 63 55 42 45 56 63 59 58 54 52 59 57 55 52 52 55 53 42 40 42 56 60 58 53 45 38 45 33 34 28 35 42 48 51 51 54 55 55 53 59
48 55 60 69 67 59 49 46 54 65 65 61 50 54 47 51 51 50 50 57 56 57 54 47 36 53 57 58 55 48 49 32 31 26 23 32 35 35 42 45 51 52 52 52 59
53 55 66 69 64 53 44 48 60 69 66 59 53 51 51 49 50 48 51 57 59 57 54 47 40 44 49 45 42 42 37 37 35 34 26 27 30 43 43 46 47 50 53 54 55
46 51 67 67 53 47 48 57 59 64 66 62 58 55 50 50 47 49 49 54 60 56 48 49 41 34 43 51 55 48 41 37 28 27 33 31 31 53 47 53 49 52 55 58 57
42 47 64 65 45 44 52 59 61 61 60 60 57 57 54 48 40 48 51 59 59 54 48 47 34 32 36 40 46 42 44 42 38 32 31 26 31 52 53 55 50 50 53 56 58
45 46 51 51 50 47 46 50 54 63 61 60 57 56 50 46 49 44 49 55 56 54 59 51 33 37 32 39 41 37 42 42 36 25 33 33 37 45 47 46 48 50 51 53 54
47 44 46 41 45 45 44 50 52 52 58 57 52 52 46 39 42 43 47 49 53 55 48 42 32 36 39 43 43 41 41 41 37 39 32 38 39 39 42 47 44 50 51 52 53
43 42 44 42 46 47 47 48 50 52 52 49 46 50 48 39 40 37 42 41 41 46 41 40 34 36 35 43 43 39 44 44 44 43 44 42 39 46 48 48 49 49 48 48 51
46 48 44 42 44 43 43 48 50 50 53 54 49 45 44 45 48 48 48 48 47 42 40 34 28 29 30 40 36 31 39 43 43 44 44 35 39 45 44 46 45 45 46 48 50
MSLP
1017.91 1017.64 1017.39 1017.18 1016.97 1016.81 1016.63 1016.40 1016.15 1015.94 1015.78 1015.52 1015.21 1014.86 1014.52 1014.19 1013.38 1013.41 1013.08 1012.49 1012.23 1012.11 1011.86 1011.34 1010.72 1010.85 1010.79 1011.04 1010.63 1011.09 1012.55 1013.04 1012.18 1011.29 1010.67 1010.00 1009.39 1008.53 1008.17 1008.23 1007.46 1007.19 1007.31 1007.12 1006.68
1017.95 1017.68 1017.38 1017.15 1016.91 1016.72 1016.56 1016.37 1016.18 1015.92 1015.67 1015.46 1015.17 1014.82 1014.42 1013.99 1013.39 1012.66 1012.11 1012.06 1012.06 1011.97 1011.84 1011.86 1011.46 1011.12 1010.93 1010.84 1010.76 1011.32 1012.38 1012.07 1011.33 1010.85 1010.49 1009.86 1009.73 1009.18 1008.91 1008.33 1007.79 1007.31 1006.34 1006.86 1006.81
1018.07 1017.68 1017.35 1017.04 1016.78 1016.58 1016.38 1016.21 1016.03 1015.85 1015.67 1015.38 1015.04 1014.70 1014.33 1013.94 1013.43 1012.33 1011.36 1011.45 1011.56 1011.80 1011.97 1011.90 1011.49 1011.40 1011.53 1011.38 1011.15 1011.24 1011.69 1011.28 1010.79 1010.35 1010.41 1010.21 1009.62 1009.23 1009.21 1009.03 1008.74 1008.22 1007.39 1006.76 1007.03
1018.21 1017.80 1017.43 1016.97 1016.63 1016.40 1016.18 1016.06 1015.91 1015.72 1015.59 1015.36 1015.01 1014.64 1014.37 1014.07 1013.95 1012.34 1011.46 1011.41 1011.43 1011.53 1011.56 1011.54 1011.35 1011.67 1012.09 1012.07 1011.82 1011.62 1011.19 1011.07 1010.65 1010.49 1010.42 1010.20 1009.73 1009.33 1009.09 1008.85 1008.15 1007.90 1007.51 1007.10 1006.93
1018.35 1017.91 1017.51 1017.04 1016.63 1016.29 1016.05 1015.95 1015.82 1015.66 1015.51 1015.27 1014.98 1014.61 1014.38 1014.13 1013.24 1011.71 1011.53 1011.52 1011.66 1011.84 1011.83 1011.82 1011.92 1012.19 1012.72 1012.66 1012.03 1011.64 1011.43 1010.86 1010.28 1009.97 1009.94 1009.79 1009.28 1009.12 1008.86 1008.09 1007.75 1007.60 1007.50 1007.22 1006.73
1018.45 1017.96 1017.48 1016.99 1016.51 1016.07 1015.76 1015.58 1015.52 1015.43 1015.33 1015.16 1014.88 1014.52 1014.23 1013.30 1011.63 1011.39 1011.54 1011.96 1011.85 1011.99 1011.92 1011.91 1012.21 1012.28 1012.82 1012.90 1012.99 1012.29 1012.06 1011.76 1011.42 1011.00 1010.64 1010.34 1009.51 1009.21 1007.91 1007.69 1007.72 1007.47 1007.23 1007.01 1006.83
1018.47 1017.98 1017.45 1016.94 1016.47 1016.01 1015.58 1015.29 1015.18 1015.16 1015.13 1014.98 1014.84 1014.60 1014.16 1012.35 1011.20 1011.33 1011.73 1011.70 1011.51 1011.41 1011.52 1011.44 1011.67 1012.25 1012.66 1012.96 1012.47 1012.45 1012.72 1011.95 1011.27 1010.86 1010.74 1009.85 1009.65 1009.07 1007.84 1007.49 1007.54 1007.29 1006.99 1006.64 1006.47
1018.43 1017.94 1017.43 1016.88 1016.36 1015.89 1015.42 1015.05 1014.84 1014.84 1014.91 1014.84 1014.83 1014.62 1013.34 1011.19 1010.92 1011.18 1011.28 1011.11 1010.91 1010.87 1011.05 1011.07 1011.26 1011.86 1012.53 1012.77 1012.80 1013.05 1013.02 1012.78 1011.84 1011.08 1010.53 1010.06 1009.11 1008.65 1008.09 1008.08 1007.84 1007.25 1006.75 1006.35 1005.90
1018.45 1017.92 1017.43 1016.88 1016.32 1015.76 1015.18 1014.69 1014.38 1014.34 1014.48 1014.75 1014.82 1014.34 1012.79 1011.13 1010.93 1010.73 1010.81 1010.97 1010.85 1010.80 1010.70 1010.90 1011.52 1012.16 1012.70 1013.41 1013.99 1013.90 1013.72 1013.15 1012.03 1011.06 1010.51 1010.28 1008.96 1009.00 1008.32 1008.11 1007.66 1007.09 1006.53 1006.23 1005.74
1018.43 1017.86 1017.33 1016.83 1016.26 1015.70 1014.91 1014.32 1013.90 1013.91 1013.81 1014.27 1014.10 1014.12 1012.39 1011.16 1010.68 1010.43 1010.52 1010.76 1010.96 1011.07 1011.22 1011.28 1012.10 1012.80 1013.66 1014.26 1014.57 1014.07 1013.65 1013.09 1012.71 1011.37 1010.90 1010.66 1009.45 1009.11 1008.58 1008.14 1007.55 1006.88 1006.07 1005.66 1005.28
1018.34 1017.74 1017.14 1016.64 1016.21 1015.77 1014.79 1014.16 1014.37 1014.22 1013.82 1013.46 1013.02 1012.55 1011.37 1010.67 1010.23 1010.30 1010.39 1010.68 1010.99 1011.61 1012.27 1012.10 1012.96 1013.34 1013.48 1013.53 1013.47 1013.27 1013.05 1012.69 1012.40 1011.88 1011.24 1010.74 1010.04 1008.78 1008.31 1007.72 1007.12 1006.60 1005.94 1005.14 1004.52
1018.28 1017.60 1016.93 1016.35 1016.00 1015.81 1015.59 1014.86 1013.53 1013.28 1013.14 1012.29 1011.81 1011.69 1010.98 1010.36 1010.53 1010.40 1010.30 1010.98 1011.55 1012.30 1012.57 1013.01 1012.98 1012.84 1012.85 1012.74 1012.73 1012.68 1012.78 1012.58 1012.01 1011.67 1011.46 1010.54 1009.67 1008.49 1008.10 1007.46 1006.73 1006.20 1005.67 1004.89 1004.02
1018.22 1017.42 1016.71 1016.02 1015.53 1015.51 1015.08 1013.85 1012.79 1012.62 1013.16 1011.60 1010.86 1010.55 1010.28 1010.31 1010.43 1010.16 1010.37 1010.92 1011.65 1012.34 1012.87 1013.30 1012.80 1012.47 1012.40 1012.46 1012.41 1012.42 1012.68 1012.63 1012.29 1011.20 1011.51 1010.54 1009.52 1008.80 1007.58 1007.11 1006.52 1006.34 1005.35 1004.20 1003.97
1017.99 1017.26 1016.53 1015.75 1015.48 1015.44 1014.33 1012.91 1012.45 1012.66 1013.32 1011.49 1010.38 1009.66 1009.76 1010.09 1010.21 1009.49 1009.95 1010.88 1011.62 1012.12 1012.50 1012.75 1012.10 1012.14 1012.13 1012.23 1012.11 1012.12 1012.25 1012.44 1012.55 1012.72 1012.16 1011.66 1009.76 1009.61 1008.34 1007.64 1007.18 1006.97 1006.40 1005.78 1004.55
1017.62 1016.98 1016.37 1016.22 1015.86 1015.15 1013.63 1012.99 1012.38 1013.00 1012.96 1010.97 1010.03 1009.21 1009.58 1010.26 1009.79 1009.67 1009.71 1010.66 1011.39 1011.82 1012.46 1012.50 1012.16 1011.90 1011.93 1011.79 1011.65 1012.20 1012.32 1012.82 1012.98 1013.15 1012.82 1012.21 1012.18 1009.57 1009.17 1008.75 1008.04 1007.80 1007.35 1006.50 1004.99
1017.18 1016.67 1016.33 1015.99 1016.02 1014.27 1013.27 1012.93 1013.02 1013.71 1012.05 1010.94 1010.30 1010.11 1010.47 1010.23 1009.97 1010.04 1010.21 1010.66 1010.75 1011.57 1011.91 1011.96 1011.62 1011.52 1011.61 1011.71 1012.11 1012.28 1012.71 1013.09 1013.66 1014.16 1014.24 1013.43 1013.17 1010.93 1010.50 1010.00 1009.17 1008.79 1007.64 1007.31 1006.03
1016.65 1016.12 1016.14 1015.39 1014.59 1013.52 1013.37 1013.83 1014.26 1013.49 1011.82 1011.78 1011.42 1011.15 1011.01 1010.78 1010.17 1010.41 1010.95 1011.29 1011.75 1012.16 1012.95 1012.41 1011.79 1011.47 1011.82 1011.96 1012.30 1012.99 1014.45 1015.29 1015.56 1015.54 1015.18 1013.87 1013.17 1011.36 1010.71 1010.35 1009.83 1009.45 1008.11 1008.04 1007.91
1016.16 1015.62 1015.29 1014.52 1013.68 1013.96 1014.24 1014.80 1014.43 1013.09 1012.37 1012.08 1011.98 1011.67 1011.90 1012.07 1011.79 1011.70 1011.93 1012.31 1011.96 1012.66 1013.25 1013.10 1012.44 1012.22 1012.51 1013.08 1013.53 1014.09 1015.27 1016.95 1016.96 1016.53 1014.97 1014.30 1012.95 1011.16 1010.65 1010.43 1010.16 1009.67 1009.09 1008.35 1008.98
1015.96 1015.47 1015.24 1013.71 1013.51 1014.27 1015.14 1015.51 1014.54 1013.11 1012.68 1012.56 1012.36 1012.53 1012.93 1013.01 1013.28 1013.01 1013.03 1013.01 1013.24 1013.51 1014.15 1013.85 1013.38 1012.81 1012.67 1013.05 1013.96 1014.41 1015.43 1015.99 1016.86 1016.62 1016.07 1014.31 1012.61 1011.53 1010.84 1010.53 1009.82 1009.61 1009.80 1009.12 1009.88
1017.45 1016.44 1015.08 1013.10 1013.52 1014.86 1016.08 1015.62 1014.02 1013.01 1012.60 1012.63 1013.11 1013.54 1014.06 1014.07 1014.21 1014.02 1013.68 1013.19 1013.46 1013.71 1013.90 1014.41 1013.96 1013.32 1013.16 1013.47 1013.85 1014.29 1015.49 1016.30 1017.14 1017.29 1016.40 1014.47 1013.17 1011.82 1011.13 1010.65 1010.42 1010.03 1009.99 1009.84 1009.26
1017.59 1016.65 1013.90 1013.29 1014.00 1015.64 1016.62 1015.57 1014.04 1013.09 1012.53 1012.75 1013.23 1013.88 1014.40 1014.90 1014.94 1014.86 1014.22 1013.59 1013.48 1013.66 1013.88 1014.42 1014.95 1014.18 1013.95 1013.93 1014.04 1014.63 1015.57 1016.56 1017.58 1017.66 1016.96 1015.49 1013.26 1011.84 1011.43 1010.77 1010.25 1010.27 1009.78 1009.34 1009.32
1019.43 1017.54 1014.06 1013.84 1015.35 1016.33 1016.47 1015.43 1014.53 1013.66 1012.96 1012.88 1013.22 1013.92 1014.56 1015.07 1015.23 1015.16 1014.45 1014.09 1013.92 1014.37 1014.73 1014.80 1014.97 1014.69 1014.21 1013.91 1013.40 1014.47 1015.48 1016.55 1017.79 1017.76 1017.16 1016.40 1013.22 1011.52 1011.23 1010.50 1010.21 1009.94 1009.32 1008.79 1008.47
1021.29 1018.79 1014.92 1014.69 1016.75 1017.69 1016.87 1015.85 1014.80 1014.13 1013.68 1013.47 1013.65 1014.03 1014.71 1015.36 1015.86 1015.34 1014.82 1014.41 1014.56 1015.02 1015.29 1015.64 1016.02 1015.73 1014.42 1014.41 1014.18 1014.46 1015.22 1015.86 1016.62 1016.90 1016.24 1015.88 1012.92 1011.49 1011.21 1010.55 1010.26 1009.89 1009.45 1008.99 1008.32
1021.68 1020.26 1017.97 1017.68 1018.17 1018.61 1018.24 1016.89 1015.59 1014.49 1014.33 1014.24 1014.49 1014.77 1015.41 1015.87 1016.21 1015.96 1015.54 1014.96 1015.12 1015.37 1015.58 1015.88 1016.42 1016.52 1015.79 1014.95 1014.88 1014.50 1014.69 1015.47 1016.09 1016.44 1015.00 1014.32 1012.07 1011.93 1011.53 1010.97 1010.44 1010.00 1009.54 1009.17 1008.82
1022.01 1022.02 1021.44 1020.66 1019.74 1019.65 1019.17 1017.84 1016.74 1015.91 1015.22 1015.27 1015.44 1016.14 1016.65 1016.84 1016.88 1016.59 1016.26 1015.69 1015.49 1015.38 1015.86 1016.56 1016.82 1016.59 1015.90 1015.20 1014.67 1014.16 1013.69 1014.25 1014.64 1014.23 1014.27 1012.29 1012.38 1012.09 1011.51 1011.29 1010.97 1010.29 1010.09 1009.73 1009.13
1023.17 1023.15 1022.57 1021.93 1020.90 1020.22 1019.38 1018.60 1017.97 1017.41 1016.70 1016.71 1016.93 1016.97 1017.14 1017.61 1018.07 1017.86 1017.54 1017.05 1016.31 1015.78 1016.33 1017.16 1016.77 1016.42 1015.67 1015.06 1014.49 1013.64 1013.09 1012.62 1012.60 1012.28 1012.34 1012.49 1011.92 1011.53 1011.70 1011.35 1011.08 1010.74 1010.55 1010.22 1009.76
1024.03 1023.61 1023.64 1022.44 1021.68 1020.96 1020.47 1019.77 1018.97 1018.49 1017.68 1017.60 1017.78 1017.71 1017.90 1018.25 1018.26 1017.72 1017.16 1016.40 1015.86 1016.26 1016.34 1017.35 1017.22 1017.25 1015.64 1014.99 1014.76 1013.63 1011.08 1011.24 1011.30 1011.24 1011.75 1012.03 1011.64 1011.66 1011.61 1011.50 1011.35 1011.15 1010.83 1010.33 1009.74
Wind_Speed
15 13 11 10 9 9 9 10 10 10 10 11 12 13 14 14 15 3 1 4 4 8 8 8 4 5 5 3 2 4 5 2 4 5 8 5 8 7 6 4 5 6 6 6 11
16 14 12 10 9 9 8 9 9 10 10 10 10 11 12 14 3 4 4 5 6 6 4 8 9 11 3 1 1 5 5 6 6 2 5 5 4 5 8 11 7 14 17 5 6
18 16 15 13 11 10 10 10 10 10 9 10 10 10 11 9 5 7 7 7 6 5 0 3 5 3 2 4 5 0 6 4 4 2 2 6 4 2 3 8 6 10 13 11 3
19 17 16 16 14 12 12 11 11 11 10 9 10 11 12 2 4 5 8 8 8 6 6 6 7 7 7 7 7 4 3 1 4 2 3 4 4 7 5 10 9 9 9 5 10
19 18 17 16 15 13 12 11 10 9 8 7 8 10 2 5 4 9 8 6 5 3 6 6 9 6 6 5 9 4 6 10 11 12 9 6 13 6 7 12 10 10 9 12 13
19 19 17 18 16 14 12 11 9 8 7 6 7 9 2 2 5 8 8 3 7 3 2 4 1 1 0 3 0 5 7 10 7 11 8 7 17 4 20 7 9 10 11 11 11
19 19 18 18 17 15 13 11 10 8 6 5 6 3 3 7 5 7 4 5 5 2 1 3 4 5 1 6 4 5 7 9 8 6 6 7 7 8 21 17 12 12 10 11 13
20 19 19 18 17 16 15 13 11 7 5 1 2 1 5 4 2 2 4 3 4 3 4 6 4 2 3 2 8 6 4 3 9 4 5 1 10 6 10 8 12 12 10 11 13
20 19 19 17 17 17 16 16 11 7 6 4 1 2 8 6 0 5 4 3 3 5 6 3 5 4 5 3 6 5 6 5 8 7 7 2 21 6 10 10 11 11 10 10 9
21 20 18 17 16 16 19 8 5 8 3 5 2 2 4 3 3 3 3 5 4 4 7 3 4 1 5 5 5 6 5 4 6 8 7 8 14 13 9 8 13 16 10 9 10
23 21 19 17 15 12 10 5 7 5 2 5 5 3 3 4 2 2 3 1 3 6 2 6 4 4 7 6 8 5 5 10 5 5 7 11 10 21 15 9 11 14 15 12 13
25 23 21 19 15 10 1 1 5 8 7 8 13 8 9 4 2 2 6 2 3 4 5 9 4 3 6 5 6 6 7 7 7 7 9 12 18 20 11 10 9 11 13 16 15
23 23 21 20 19 2 2 6 7 6 2 7 6 5 7 7 5 6 6 3 1 2 4 2 11 7 8 7 9 5 5 6 9 13 3 13 8 14 18 9 9 9 13 6 10
23 21 20 21 3 4 4 6 0 5 5 6 4 4 4 4 5 7 7 6 2 5 4 4 5 8 11 7 8 5 6 6 9 8 11 6 14 12 6 11 5 13 14 12 17
24 20 18 8 2 2 4 7 4 6 4 4 3 2 2 6 3 2 4 4 6 6 2 11 7 11 6 6 4 5 6 2 5 9 6 7 2 7 8 7 10 13 17 19 18
26 20 13 4 1 7 9 5 6 6 2 2 3 1 3 4 6 2 2 1 4 4 4 8 4 3 1 3 5 5 6 7 5 2 3 3 1 5 4 8 6 11 13 20 18
27 19 5 2 4 4 6 6 6 3 6 6 4 5 5 6 5 6 4 3 3 6 5 4 3 2 5 5 7 11 9 7 7 5 6 5 5 9 5 6 6 8 16 16 18
28 17 5 4 5 6 5 6 3 3 3 4 4 6 1 9 6 8 6 6 3 3 2 1 8 2 4 3 4 4 6 5 7 5 16 0 7 6 3 2 5 11 12 17 16
21 3 3 6 4 4 7 5 4 3 3 3 5 5 7 5 3 7 5 2 5 6 2 5 4 5 11 4 4 4 3 6 5 3 5 5 7 3 3 3 4 6 10 12 15
3 4 4 4 5 6 6 4 2 2 0 2 2 4 4 5 7 9 4 2 2 2 4 4 9 8 2 3 5 5 0 5 5 5 6 5 5 7 2 5 6 8 7 9 18
4 5 5 5 6 6 3 5 3 5 1 2 3 3 4 3 3 3 6 6 2 3 3 3 5 6 2 5 6 4 2 1 2 3 5 5 7 3 5 5 3 7 6 4 13
4 3 4 4 5 1 0 4 6 6 5 1 3 3 3 2 4 4 6 6 9 7 6 4 4 8 13 9 13 5 6 5 5 7 4 4 12 11 7 4 2 6 9 11 8
3 4 5 6 3 4 7 5 2 6 5 3 4 2 3 2 4 4 3 6 4 6 4 3 4 10 9 7 4 3 4 2 3 0 12 6 10 7 12 20 8 12 9 8 8
3 5 7 6 2 4 5 6 6 5 4 4 4 5 4 2 5 7 8 4 8 8 14 6 4 11 15 17 5 10 11 7 5 4 13 12 23 16 10 8 11 8 7 7 6
3 2 1 5 4 6 2 4 7 7 5 7 5 7 3 4 4 5 4 10 6 14 4 2 6 6 7 11 13 14 20 13 15 17 12 22 18 3 6 8 4 9 11 10 10
3 4 5 4 5 6 6 5 6 8 4 6 5 8 4 3 1 6 5 4 6 4 4 1 11 5 7 12 13 16 18 19 18 17 14 14 14 8 4 4 8 8 9 11 12
4 4 4 5 5 4 2 5 6 5 6 6 3 3 5 4 7 12 13 16 18 13 11 4 3 1 8 3 7 9 15 8 4 5 2 6 7 2 4 6 5 7 9 14 14
Wind_Direction
13 9 5 360 354 351 349 344 341 342 343 343 341 336 331 328 312 125 93 223 258 331 321 292 322 318 135 250 194 88 66 255 272 31 283 330 7 330 300 11 325 356 46 356 321
10 8 4 357 351 346 341 340 341 341 342 345 339 331 325 330 338 342 209 235 276 334 24 13 335 356 348 301 288 107 115 235 204 229 296 306 24 335 7 345 339 338 337 11 6
8 2 360 357 350 344 340 341 342 344 346 342 334 326 327 326 22 308 326 318 324 35 317 286 271 205 342 360 351 12 178 227 274 271 359 316 329 296 2 317 278 297 305 320 59
6 0 355 354 349 344 339 339 340 339 341 336 327 322 323 2 97 268 296 289 314 351 356 343 13 31 30 1 337 11 317 336 280 27 333 293 264 295 213 240 252 269 277 284 311
4 359 354 350 345 339 333 332 331 332 335 331 324 325 87 28 233 244 254 279 318 14 324 356 28 22 9 329 341 34 333 342 326 331 314 325 300 229 235 255 254 274 285 286 293
1 358 353 347 345 338 332 329 329 330 337 335 327 319 59 56 225 225 220 322 263 218 65 65 99 253 315 300 30 314 321 295 297 293 293 283 278 343 286 247 272 261 256 261 257
353 351 348 345 342 336 328 324 322 324 336 339 339 349 66 225 186 212 177 215 225 272 227 208 136 72 330 314 287 267 306 321 290 263 270 275 305 253 256 275 261 265 264 261 255
351 349 348 345 341 335 327 318 311 303 293 149 26 41 253 251 240 207 194 343 1 277 213 234 179 129 164 262 342 360 351 327 281 326 262 240 283 284 295 274 281 268 277 269 256
348 346 345 343 339 334 323 311 294 287 235 184 86 64 292 293 216 233 185 250 284 295 294 247 117 203 12 48 2 344 247 264 319 294 303 326 299 283 285 282 277 274 264 266 267
346 343 341 339 335 332 317 281 295 324 95 173 245 360 276 233 200 205 197 252 256 287 324 15 73 86 13 60 261 253 270 261 281 294 346 318 303 317 303 281 273 277 269 252 244
343 340 336 334 331 337 347 8 18 358 54 211 226 254 269 264 192 258 176 279 22 49 12 316 51 290 265 224 232 263 300 311 325 298 333 300 299 301 304 283 282 279 273 265 257
340 337 334 328 325 325 108 62 194 194 299 248 250 242 266 148 318 301 151 93 54 321 356 10 294 238 292 315 321 331 320 301 265 320 315 300 300 294 296 270 273 277 286 276 270
338 334 330 323 318 115 170 238 303 109 26 293 215 211 255 131 227 243 133 154 118 326 324 280 266 297 330 328 314 290 244 283 282 315 263 293 281 293 307 283 288 339 328 304 280
337 333 330 321 17 329 266 281 252 90 61 280 166 234 186 133 285 206 166 143 219 217 250 258 265 316 301 290 284 286 234 272 321 354 308 5 299 320 303 318 13 343 357 330 317
336 333 331 313 234 323 269 317 55 57 33 181 191 217 182 169 241 248 157 74 208 217 170 250 265 284 291 260 294 257 308 305 280 288 310 304 280 283 331 331 334 2 357 347 341
335 334 337 84 285 243 308 305 51 45 309 203 104 305 5 257 257 101 172 135 218 218 243 257 265 225 193 5 1 293 357 351 358 54 10 261 110 270 352 296 2 13 24 11 335
332 330 315 315 240 310 337 43 47 96 335 11 12 339 310 300 285 167 194 229 261 326 304 295 257 347 39 9 353 23 34 331 342 358 232 307 321 260 305 334 61 21 19 5 8
327 320 205 233 269 9 44 50 79 285 33 59 332 312 332 25 352 357 9 345 322 168 242 313 330 32 13 54 270 272 145 158 277 292 295 152 254 267 212 238 58 34 24 7 349
325 348 329 263 238 79 68 61 220 342 20 12 337 25 346 18 349 16 340 273 42 40 332 321 275 333 330 21 74 287 235 224 257 243 307 246 279 293 328 3 45 62 11 10 311
12 347 271 270 115 63 70 238 260 68 200 93 116 68 342 318 349 11 320 335 71 110 136 249 292 227 205 46 306 227 327 342 325 289 267 272 273 241 319 346 7 20 3 319 314
31 22 257 120 64 52 137 242 333 345 122 140 167 248 284 344 306 283 259 313 184 249 172 223 172 260 341 187 226 304 320 329 163 224 249 283 263 248 244 224 45 289 253 214 292
359 3 310 64 38 41 262 305 312 350 344 358 144 155 156 270 259 254 235 221 343 23 308 253 234 271 269 235 253 193 185 141 130 279 248 258 265 252 216 244 221 269 254 251 233
360 277 329 80 60 341 318 308 289 338 321 291 245 144 182 247 329 248 287 347 349 19 341 323 290 309 305 344 14 175 192 196 220 95 252 249 268 350 307 307 277 282 293 274 267
21 355 329 34 66 62 354 293 319 308 305 19 46 24 9 248 179 277 293 299 355 318 305 315 218 218 262 266 251 271 264 260 205 211 273 245 279 285 299 294 304 294 281 279 286
34 327 323 315 330 329 240 266 317 348 1 19 14 27 44 308 275 254 311 310 289 283 283 73 254 231 246 277 276 270 277 268 250 248 243 279 282 285 292 309 320 9 359 342 334
52 25 348 288 292 329 349 348 351 344 343 345 16 328 331 286 346 296 302 244 236 270 301 279 271 267 254 270 264 273 275 279 274 269 265 289 281 208 294 326 345 338 336 320 312
320 337 106 282 329 358 54 319 338 346 303 82 323 343 351 339 295 274 260 260 258 276 285 215 184 74 278 347 333 270 250 227 240 251 205 256 235 163 265 274 279 272 274 281 283